Change the Weather History Date:

Tuesday, September 3, 2013

  Actual Average (KEGV) Record (KEGV)
Temperature  
Mean Temperature 52 °F -  
Max Temperature 72 °F 68 °F 84 °F (2012)
Min Temperature 34 °F 48 °F 35 °F (1997)
Degree Days  
Heating Degree Days 12    
Growing Degree Days 2 (Base 50)    
Moisture  
Dew Point 47 °F    
Average Humidity 77    
Maximum Humidity 100    
Minimum Humidity 43    
Precipitation  
Precipitation 0.00 in - - ()
Sea Level Pressure  
Sea Level Pressure 30.03 in    
Wind  
Wind Speed 2 mph (WSW)    
Max Wind Speed 10 mph    
Max Gust Speed -    
Visibility 7 miles    
Events Fog    
Averages and records for this station are not official NWS values.
T = Trace of Precipitation, MM = Missing Value Source: NWS Daily Summary

Daily Weather History Graph

Daily Weather History Graph

Search for Another Location

Airport or City:

Trip Planner

Search our weather history database for the weather conditions in past years. The results will help you decide how hot, cold, wet, or windy it might be!

Date:

Astronomy

Sep. 03, 2013 Rise Set
Actual Time 6:20 AM CDT 7:31 PM CDT
Civil Twilight 5:49 AM CDT 8:01 PM CDT
Nautical Twilight 5:12 AM CDT 8:38 PM CDT
Astronomical Twilight 4:32 AM CDT 9:17 PM CDT
Moon 4:31 AM CDT (9/3) 6:19 PM CDT (9/3)
Length of Visible Light 14h 12m
Length of Day
13h 10m
Waning Crescent, 3% of the Moon is Illuminated
Sep 3
Waning Crescent
Sep 5
New
Sep 12
First Quarter
Sep 19
Full
Sep 26
Last Quarter

Hourly Weather History & Observations

Time (CDT) Temp. Dew Point Humidity Pressure Visibility Wind Dir Wind Speed Gust Speed Precip Events Conditions
12:15 AM 40.5 °F 40.3 °F 99% 30.05 in 1.0 mi Calm Calm - N/A   Mist
12:35 AM 39.7 °F 39.6 °F 99% 30.05 in 0.5 mi Calm Calm - N/A Fog Fog
12:55 AM 40.3 °F 40.1 °F 99% 30.05 in 10.0 mi Calm Calm - N/A   Clear
1:15 AM 38.3 °F 38.1 °F 99% 30.05 in 7.0 mi Calm Calm - N/A   Clear
1:35 AM 38.5 °F 38.5 °F 100% 30.06 in 0.8 mi Calm Calm - N/A   Mist
1:55 AM 37.8 °F 37.8 °F 100% 30.05 in 0.5 mi Calm Calm - N/A Fog Fog
2:15 AM 37.8 °F 37.8 °F 100% 30.05 in 0.2 mi Calm Calm - N/A Fog Fog
2:35 AM 37.8 °F 37.8 °F 100% 30.05 in 0.5 mi Calm Calm - N/A Fog Fog
2:55 AM 37.2 °F 37.2 °F 100% 30.05 in 0.5 mi Calm Calm - N/A Fog Fog
3:15 AM 36.9 °F 36.9 °F 100% 30.05 in 0.5 mi Calm Calm - N/A Fog Fog
3:35 AM 36.7 °F 36.7 °F 100% 30.04 in 0.8 mi Calm Calm - N/A   Mostly Cloudy
3:55 AM 36.0 °F 36.0 °F 100% 30.05 in 0.2 mi Calm Calm - N/A Fog Fog
4:15 AM 36.5 °F 36.5 °F 100% 30.05 in 0.2 mi Calm Calm - N/A Fog Fog
4:35 AM 36.0 °F 36.0 °F 100% 30.05 in 0.2 mi Calm Calm - N/A Fog Fog
4:55 AM 36.1 °F 36.1 °F 100% 30.05 in 0.2 mi Calm Calm - N/A Fog Fog
5:15 AM 35.6 °F 35.6 °F 100% 30.05 in 0.5 mi Calm Calm - N/A Fog Fog
5:35 AM 35.6 °F 35.6 °F 100% 30.05 in 0.8 mi Calm Calm - N/A   Overcast
5:55 AM 35.1 °F 35.1 °F 100% 30.06 in 0.8 mi Calm Calm - N/A   Mostly Cloudy
6:15 AM 34.7 °F 34.7 °F 100% 30.06 in 0.2 mi Calm Calm - N/A Fog Fog
6:35 AM 34.9 °F 34.9 °F 100% 30.06 in 0.2 mi Calm Calm - N/A Fog Fog
6:55 AM 36.0 °F 36.0 °F 100% 30.06 in 0.5 mi Calm Calm - N/A Fog Fog
7:15 AM 38.1 °F 38.1 °F 100% 30.06 in 0.8 mi Calm Calm - N/A   Mist
7:35 AM 41.9 °F 41.9 °F 100% 30.07 in 10.0 mi Calm Calm - N/A   Clear
7:55 AM 48.7 °F 48.7 °F 100% 30.07 in 10.0 mi Calm Calm - N/A   Clear
8:15 AM 51.4 °F 51.4 °F 100% 30.07 in 10.0 mi Calm Calm - N/A   Clear
8:35 AM 53.4 °F 53.4 °F 100% 30.07 in 10.0 mi Calm Calm - N/A   Clear
8:55 AM 54.5 °F 54.5 °F 100% 30.08 in 10.0 mi West 3.5 mph - N/A   Clear
9:15 AM 56.5 °F 56.5 °F 100% 30.08 in 10.0 mi WNW 3.5 mph - N/A   Clear
9:35 AM 59.5 °F 51.8 °F 76% 30.07 in 10.0 mi WNW 8.1 mph - N/A   Clear
9:55 AM 60.8 °F 51.3 °F 71% 30.07 in 10.0 mi West 6.9 mph - N/A   Clear
10:15 AM 61.7 °F 50.7 °F 67% 30.07 in 10.0 mi West 6.9 mph - N/A   Clear
10:35 AM 62.1 °F 50.0 °F 65% 30.07 in 10.0 mi West 5.8 mph - N/A   Clear
10:55 AM 63.5 °F 50.0 °F 61% 30.06 in 10.0 mi WSW 8.1 mph - N/A   Clear
11:15 AM 64.4 °F 49.1 °F 58% 30.06 in 10.0 mi West 6.9 mph - N/A   Clear
11:35 AM 65.3 °F 50.4 °F 58% 30.06 in 10.0 mi West 6.9 mph - N/A   Clear
11:55 AM 65.3 °F 48.0 °F 54% 30.06 in 10.0 mi West 8.1 mph - N/A   Clear
12:15 PM 66.2 °F 48.6 °F 53% 30.04 in 10.0 mi West 10.4 mph - N/A   Clear
12:35 PM 66.4 °F 49.6 °F 55% 30.03 in 10.0 mi SW 9.2 mph - N/A   Clear
12:55 PM 67.1 °F 47.8 °F 50% 30.02 in 10.0 mi SW 8.1 mph - N/A   Clear
1:15 PM 68.9 °F 49.6 °F 50% 30.03 in 10.0 mi SW 10.4 mph - N/A   Clear
1:35 PM 68.4 °F 48.2 °F 48% 30.02 in 10.0 mi West 6.9 mph - N/A   Clear
1:55 PM 68.5 °F 47.3 °F 47% 30.02 in 10.0 mi West 4.6 mph - N/A   Clear
2:15 PM 69.6 °F 47.3 °F 45% 30.02 in 10.0 mi West 4.6 mph - N/A   Clear
2:35 PM 70.0 °F 48.0 °F 46% 30.02 in 10.0 mi West 9.2 mph - N/A   Clear
2:55 PM 70.2 °F 48.0 °F 45% 30.01 in 10.0 mi West 4.6 mph - N/A   Clear
3:15 PM 70.7 °F 48.4 °F 45% 30.01 in 10.0 mi WSW 10.4 mph - N/A   Clear
3:35 PM 71.6 °F 48.7 °F 44% 30.00 in 10.0 mi West 6.9 mph - N/A   Clear
3:55 PM 71.6 °F 48.9 °F 45% 29.99 in 10.0 mi SW 8.1 mph - N/A   Clear
4:15 PM 71.8 °F 49.8 °F 46% 29.99 in 10.0 mi WSW 8.1 mph - N/A   Clear
4:35 PM 71.8 °F 50.4 °F 47% 29.99 in 10.0 mi WSW 8.1 mph - N/A   Clear
4:55 PM 71.6 °F 48.2 °F 43% 29.98 in 10.0 mi West 5.8 mph - N/A   Clear
5:15 PM 71.2 °F 49.6 °F 46% 29.98 in 10.0 mi West 5.8 mph - N/A   Clear
5:35 PM 70.9 °F 49.3 °F 46% 29.97 in 10.0 mi WSW 5.8 mph - N/A   Clear
5:55 PM 70.5 °F 50.2 °F 48% 29.97 in 10.0 mi WSW 6.9 mph - N/A   Clear
6:15 PM 69.8 °F 51.4 °F 52% 29.97 in 10.0 mi West 6.9 mph - N/A   Clear
6:35 PM 68.9 °F 52.7 °F 56% 29.97 in 10.0 mi WSW 4.6 mph - N/A   Clear
6:55 PM 67.5 °F 53.1 °F 60% 29.97 in 10.0 mi Calm Calm - N/A   Clear
7:15 PM 65.3 °F 53.6 °F 66% 29.97 in 10.0 mi WSW 3.5 mph - N/A   Clear
7:35 PM 61.0 °F 54.5 °F 79% 29.97 in 10.0 mi Calm Calm - N/A   Clear
7:55 PM 59.5 °F 54.0 °F 82% 29.97 in 10.0 mi Calm Calm - N/A   Clear
8:15 PM 58.1 °F 54.1 °F 87% 29.98 in 10.0 mi WSW 3.5 mph - N/A   Clear
8:35 PM 57.7 °F 54.3 °F 88% 29.98 in 10.0 mi SW 3.5 mph - N/A   Clear
8:55 PM 54.7 °F 52.7 °F 93% 29.99 in 10.0 mi Calm Calm - N/A   Clear
9:15 PM 53.1 °F 51.8 °F 95% 29.99 in 10.0 mi Calm Calm - N/A   Clear
9:35 PM 53.1 °F 52.3 °F 97% 29.99 in 10.0 mi WSW 3.5 mph - N/A   Clear
9:55 PM 54.5 °F 53.1 °F 95% 30.00 in 10.0 mi Calm Calm - N/A   Clear
10:15 PM 56.8 °F 53.1 °F 87% 30.00 in 10.0 mi West 4.6 mph - N/A   Clear
10:35 PM 59.5 °F 53.2 °F 80% 29.99 in 10.0 mi West 4.6 mph - N/A   Clear
10:55 PM 60.4 °F 53.1 °F 77% 30.00 in 10.0 mi Calm Calm - N/A   Clear
11:15 PM 60.4 °F 52.9 °F 76% 30.00 in 10.0 mi West 5.8 mph - N/A   Clear
11:35 PM 60.8 °F 53.2 °F 76% 30.00 in 10.0 mi West 5.8 mph - N/A   Clear
11:55 PM 60.1 °F 53.1 °F 78% 30.00 in 10.0 mi West 4.6 mph - N/A   Clear